Belichi, Ukraine

9:00 PM EEST on May 28, 2017 (GMT +0300)
Belichi

Weather History for 33345 - November, 2013

Change the Weather History Date:

Wednesday, November 6, 2013

  Actual Average Record
Temperature  
Mean Temperature 54 °F -  
Max Temperature 62 °F - - ()
Min Temperature 46 °F - - ()
Degree Days  
Heating Degree Days 11    
Growing Degree Days 4 (Base 50)    
Moisture  
Dew Point 52 °F    
Average Humidity 88    
Maximum Humidity 100    
Minimum Humidity 66    
Precipitation  
Precipitation 0.75 in 0.07 in - ()
Sea Level Pressure  
Sea Level Pressure 29.50 in    
Wind  
Wind Speed 10 mph ()    
Max Wind Speed 16 mph    
Max Gust Speed 25 mph    
Visibility 5.1 miles    
Events Rain , Thunderstorm    
T = Trace of Precipitation, MM = Missing Value Source: Averaged Metar Reports

Daily Weather History Graph

Daily Weather History Graph

Search for Another Location

Airport or City:

Trip Planner

Search our weather history database for the weather conditions in past years. The results will help you decide how hot, cold, wet, or windy it might be!

Date:

Astronomy

Nov. 06, 2013 Rise Set
Actual Time 6:57 AM EET 4:25 PM EET
Civil Twilight 6:22 AM EET 5:00 PM EET
Nautical Twilight 5:43 AM EET 5:39 PM EET
Astronomical Twilight 5:05 AM EET 6:17 PM EET
Moon 10:02 AM EET (11/6) 6:59 PM EET (11/6)
Length of Visible Light 10h 38m
Length of Day
9h 28m
Waxing Crescent, 11% of the Moon is Illuminated
Nov 6
Waxing Crescent
Nov 10
First Quarter
Nov 17
Full
Nov 25
Last Quarter
Dec 3
New

Hourly Weather History & Observations

Time (EET) Temp. Windchill Dew Point Humidity Pressure Visibility Wind Dir Wind Speed Gust Speed Precip Events Conditions
12:00 AM 57.2 °F - 55.4 °F 94% 29.56 in 3.1 mi South 11.2 mph - N/A   Mostly Cloudy
12:30 AM 57.2 °F - 55.4 °F 94% 29.56 in 3.1 mi South 8.9 mph - N/A   Mostly Cloudy
1:00 AM 59.0 °F - 55.4 °F 88% 29.53 in 3.7 mi South 11.2 mph - N/A   Mostly Cloudy
1:30 AM 57.2 °F - 55.4 °F 94% 29.53 in 4.3 mi South 8.9 mph - N/A Rain Light Rain
2:00 AM 58 °F - 54 °F 82% 29.55 in 2 mi South 11.2 mph - -   Mist
2:00 AM 57.2 °F - 55.4 °F 94% 29.53 in 4.3 mi South 8.9 mph - N/A   Overcast
2:30 AM 57.2 °F - 53.6 °F 88% 29.50 in 4.3 mi South 11.2 mph - N/A   Overcast
3:00 AM 57.2 °F - 53.6 °F 88% 29.50 in 3.7 mi South 11.2 mph - N/A   Mostly Cloudy
3:30 AM 57.2 °F - 53.6 °F 88% 29.50 in 4.3 mi South 8.9 mph - N/A   Mostly Cloudy
4:00 AM 57.2 °F - 53.6 °F 88% 29.50 in 4.3 mi South 11.2 mph - N/A   Mostly Cloudy
4:30 AM 57.2 °F - 53.6 °F 88% 29.50 in 4.3 mi South 11.2 mph 22.4 mph N/A   Mostly Cloudy
5:00 AM 56 °F - 52 °F 83% 29.52 in 2 mi South 13.4 mph - -   Mist
5:00 AM 57.2 °F - 53.6 °F 88% 29.50 in 4.3 mi SSE 11.2 mph - N/A   Mostly Cloudy
5:30 AM 55.4 °F - 53.6 °F 94% 29.50 in 4.3 mi SSE 13.4 mph - N/A   Mostly Cloudy
6:00 AM 55.4 °F - 53.6 °F 94% 29.50 in 4.3 mi South 8.9 mph 20.1 mph N/A   Mostly Cloudy
6:30 AM 55.4 °F - 53.6 °F 94% 29.47 in 3.7 mi SSE 11.2 mph - N/A   Mostly Cloudy
7:00 AM 55.4 °F - 53.6 °F 94% 29.50 in 4.3 mi South 8.9 mph 20.1 mph N/A   Mostly Cloudy
7:30 AM 55.4 °F - 53.6 °F 94% 29.47 in 4.3 mi SSE 11.2 mph - N/A   Mostly Cloudy
8:00 AM 56 °F - 53 °F 84% 29.50 in 6 mi South 13.4 mph - -   Overcast
8:00 AM 57.2 °F - 53.6 °F 88% 29.47 in 4.3 mi SSE 11.2 mph 24.6 mph N/A   Overcast
8:30 AM 57.2 °F - 53.6 °F 88% 29.47 in 5.0 mi South 11.2 mph - N/A   Overcast
9:00 AM 57.2 °F - 53.6 °F 88% 29.47 in 4.3 mi South 11.2 mph - N/A   Overcast
9:30 AM 57.2 °F - 53.6 °F 88% 29.47 in 5.0 mi South 11.2 mph 22.4 mph N/A   Overcast
10:00 AM 59.0 °F - 53.6 °F 82% 29.47 in 5.0 mi South 11.2 mph - N/A   Mostly Cloudy
10:30 AM 59.0 °F - 53.6 °F 82% 29.47 in 5.6 mi South 11.2 mph 22.4 mph N/A   Mostly Cloudy
11:00 AM 58 °F - 53 °F 78% 29.48 in 12 mi South 13.4 mph - -   Overcast
11:00 AM 59.0 °F - 53.6 °F 82% 29.44 in 5.6 mi South 13.4 mph - N/A   Mostly Cloudy
11:30 AM 60.8 °F - 53.6 °F 77% 29.44 in 6.2 mi South 13.4 mph - N/A   Mostly Cloudy
12:00 PM 60.8 °F - 53.6 °F 77% 29.44 in 6.2 mi South 15.7 mph - N/A   Mostly Cloudy
12:30 PM 60.8 °F - 53.6 °F 77% 29.44 in 6.2 mi South 11.2 mph 22.4 mph N/A   Mostly Cloudy
1:00 PM 60.8 °F - 53.6 °F 77% 29.44 in 6.2 mi SSW 8.9 mph 20.1 mph N/A   Mostly Cloudy
1:30 PM 60.8 °F - 55.4 °F 82% 29.44 in 6.2 mi SSW 8.9 mph - N/A   Mostly Cloudy
2:00 PM 62 °F - 53 °F 66% 29.45 in 12 mi South 8.9 mph - -   Overcast
2:00 PM 60.8 °F - 55.4 °F 82% 29.44 in 6.2 mi South 6.7 mph - N/A   Mostly Cloudy
2:30 PM 62.6 °F - 55.4 °F 77% 29.44 in 6.2 mi South 8.9 mph - N/A   Mostly Cloudy
3:00 PM 62.6 °F - 55.4 °F 77% 29.44 in 5.0 mi South 6.7 mph - N/A   Mostly Cloudy
3:30 PM 62.6 °F - 55.4 °F 77% 29.44 in 6.2 mi SSW 6.7 mph - N/A   Mostly Cloudy
4:00 PM 59.0 °F - 53.6 °F 82% 29.44 in 6.2 mi SW 11.2 mph 22.4 mph N/A   Mostly Cloudy
4:30 PM 55.4 °F - 51.8 °F 88% 29.44 in 6.2 mi NW 13.4 mph - N/A Rain Light Rain Showers
5:00 PM 55 °F - 51 °F 83% 29.47 in 6 mi NNW 8.9 mph - - Rain Light Rain
5:00 PM 53.6 °F - 50.0 °F 88% 29.47 in 6.2 mi NW 15.7 mph - N/A Rain Light Rain Showers
5:06 PM 51.8 °F - 50.0 °F 94% 29.47 in 1.2 mi NW 15.7 mph - N/A Rain , Thunderstorm Thunderstorms and Rain
5:30 PM 51.8 °F - 51.8 °F 100% 29.47 in - NNW 11.2 mph 22.4 mph N/A Rain , Thunderstorm Light Thunderstorms and Rain
5:49 PM 51.8 °F - 50.0 °F 94% 29.50 in 5.6 mi NNW 11.2 mph - N/A Rain , Thunderstorm Light Rain Showers
6:00 PM 51.8 °F - 50.0 °F 94% 29.50 in 6.2 mi NNW 13.4 mph - N/A Rain , Thunderstorm Light Rain Showers
6:05 PM 51.8 °F - 50.0 °F 94% 29.50 in 6.2 mi NNW 13.4 mph - N/A Rain Light Rain Showers
6:30 PM 51.8 °F - 50.0 °F 94% 29.50 in 4.3 mi NNW 8.9 mph - N/A Rain Light Rain Showers
7:00 PM 50.0 °F - 48.2 °F 94% 29.50 in 3.7 mi WNW 11.2 mph - N/A Rain Light Rain Showers
7:30 PM 50.0 °F - 48.2 °F 94% 29.50 in 6.2 mi West 8.9 mph - N/A Rain Light Rain Showers
8:00 PM 50 °F - 47 °F 88% 29.56 in 2 mi West 2.2 mph - - Rain Light Rain
8:00 PM 50.0 °F - 48.2 °F 94% 29.53 in 5.0 mi West 8.9 mph - N/A Rain Light Rain Showers
8:30 PM 50.0 °F - 48.2 °F 94% 29.53 in 6.2 mi NW 6.7 mph - N/A Rain Light Rain Showers
9:00 PM 50.0 °F - 48.2 °F 94% 29.56 in 5.0 mi WNW 6.7 mph - N/A Rain Light Rain Showers
9:30 PM 48.2 °F - 46.4 °F 93% 29.56 in 6.2 mi NW 6.7 mph - N/A Rain Light Rain Showers
10:00 PM 48.2 °F - 46.4 °F 93% 29.56 in 6.2 mi NW 11.2 mph - N/A Rain Light Rain Showers
10:30 PM 48.2 °F - 46.4 °F 93% 29.56 in 6.2 mi NW 8.9 mph - N/A Rain Light Rain Showers
11:00 PM 47 °F - 44 °F 86% 29.60 in 2 mi NW 4.5 mph - - Rain Light Rain Showers
11:00 PM 46.4 °F 43.0 °F 44.6 °F 93% 29.56 in 6.2 mi NW 6.7 mph - N/A Rain Light Rain
11:30 PM 46.4 °F 42.0 °F 44.6 °F 93% 29.59 in 6.2 mi WNW 8.9 mph - N/A Rain Light Rain